sat.trackr.live / text

‹ back to catalog

STARLINK-11236 [DTC]

NORAD 61062 · 2024-164N

PAYLOAD ACTIVE UNKNOWN

§ Identity

Operator
Country
US
Launch date
2024-09-13
Launch site
AFWTR
Launch vehicle
Mass (kg)
RCS (m²)

Purposes: comms

External: N2YO · Heavens-Above · Gunter

§ Orbital elements

Epoch: 2026-09-21T16:48:50.409216Z

Period
91.74 min
Inclination
53.1582°
Eccentricity
0.0000576
Mean motion
15.69707947 rev/d
Perigee alt
359.3 km
Apogee alt
360.1 km
Semi-major
6,737.9 km
B*
2.9529e-6
RAAN
65.0744°
Arg perigee
72.0957°
Mean anomaly
288.0124°
Rev number
11,620

§ Raw data

STARLINK-11236 [DTC]1 61062U 24164N   26264.70058344 -.00000230  00000+0  29529-5 0  99902 61062  53.1582  65.0744 0000576  72.0957 288.0124 15.69707947116205

JSON: /api/v1/satellites/61062 · /tle

For live sub-satellite position, see the globe view (requires WebGL).

§ Visibility from observer

Set your observer location to see the next 7 days of passes ≥ 10°. The values pass through the URL so the page stays shareable.

No JS? Fill the form by hand. The geolocation button needs JavaScript.